AAL1471 KSEA-KMIA

Flight info

Callsign AAL1471
Flight time N/A
Altitude 35000
Route MONTN2 SEA NORMY MODDA STEVS FINUT OFINO DLN BOY/N0439F370 LEWOY Q148 CUGGA ICT BVO GAGLE STEIT ACORI FROGZ4
Aircraft A321/M-SDE3FGHIRWY/LB1

Departure

Time 2026-05-08 07:41
Airport Seattle–Tacoma International Airport (KSEA)

Arrival

Time N/A
Airport Miami International Airport (KMIA)
Time Latitude Longitude Altitude Speed Heading
2026-05-08 07:26 47.44182 -122.30447 377 ft 0 kts 90°
2026-05-08 07:32 47.44182 -122.30462 377 ft 3 kts 93°
2026-05-08 07:32 47.44183 -122.30492 377 ft 3 kts 88°
2026-05-08 07:33 47.44181 -122.30521 377 ft 3 kts 83°
2026-05-08 07:33 47.44178 -122.30551 377 ft 3 kts 76°
2026-05-08 07:33 47.44173 -122.30579 377 ft 3 kts 65°
2026-05-08 07:33 47.44163 -122.30603 377 ft 3 kts 41°
2026-05-08 07:34 47.44150 -122.30615 377 ft 2 kts
2026-05-08 07:34 47.44144 -122.30616 377 ft 0 kts
2026-05-08 07:36 47.44152 -122.30616 377 ft 4 kts 358°
2026-05-08 07:36 47.44211 -122.30615 377 ft 12 kts
2026-05-08 07:37 47.44323 -122.30615 377 ft 20 kts 359°
2026-05-08 07:37 47.44474 -122.30617 377 ft 23 kts 360°
2026-05-08 07:37 47.44640 -122.30619 377 ft 24 kts 360°
2026-05-08 07:37 47.44812 -122.30618 377 ft 25 kts
2026-05-08 07:38 47.44988 -122.30619 377 ft 26 kts 359°
2026-05-08 07:38 47.45171 -122.30620 377 ft 27 kts 360°
2026-05-08 07:38 47.45360 -122.30620 377 ft 28 kts
2026-05-08 07:38 47.45554 -122.30618 377 ft 28 kts
2026-05-08 07:39 47.45755 -122.30615 377 ft 29 kts
2026-05-08 07:39 47.45961 -122.30616 377 ft 30 kts
2026-05-08 07:39 47.46161 -122.30615 377 ft 28 kts
2026-05-08 07:39 47.46338 -122.30631 377 ft 17 kts 315°
2026-05-08 07:40 47.46347 -122.30758 377 ft 9 kts 259°
2026-05-08 07:40 47.46304 -122.30780 377 ft 7 kts 180°
2026-05-08 07:40 47.46255 -122.30780 377 ft 8 kts 180°
2026-05-08 07:40 47.46018 -122.30780 377 ft 65 kts 180°
2026-05-08 07:41 47.45369 -122.30788 377 ft 122 kts 180°
2026-05-08 07:41 47.44349 -122.30794 440 ft 162 kts 180°
2026-05-08 07:41 47.43211 -122.30799 1072 ft 165 kts 180°
2026-05-08 07:41 47.42044 -122.30809 1799 ft 170 kts 180°
2026-05-08 07:42 47.40816 -122.30838 2353 ft 190 kts 181°
2026-05-08 07:42 47.39392 -122.30870 2783 ft 217 kts 180°
2026-05-08 07:42 47.37856 -122.30291 3314 ft 242 kts 149°
2026-05-08 07:42 47.36728 -122.28431 4121 ft 254 kts 118°
2026-05-08 07:43 47.36261 -122.25886 5037 ft 263 kts 95°
2026-05-08 07:43 47.36363 -122.23148 6018 ft 269 kts 84°
2026-05-08 07:43 47.36581 -122.20403 6992 ft 275 kts 83°
2026-05-08 07:43 47.36820 -122.17571 7972 ft 280 kts 83°
2026-05-08 07:44 47.37074 -122.14682 8954 ft 286 kts 83°
2026-05-08 07:44 47.37344 -122.11744 9933 ft 292 kts 82°
2026-05-08 07:44 47.37637 -122.08692 10568 ft 312 kts 82°
2026-05-08 07:44 47.37891 -122.05438 11093 ft 333 kts 84°
2026-05-08 07:45 47.38134 -122.01952 11850 ft 346 kts 83°
2026-05-08 07:45 47.38450 -121.98386 12714 ft 355 kts 81°
2026-05-08 07:45 47.38871 -121.94759 13599 ft 362 kts 79°
2026-05-08 07:45 47.39393 -121.91082 14483 ft 368 kts 77°
2026-05-08 07:46 47.40003 -121.87372 15349 ft 375 kts 75°
2026-05-08 07:46 47.40684 -121.83669 16182 ft 381 kts 73°
2026-05-08 07:46 47.41446 -121.79886 17004 ft 387 kts 72°
2026-05-08 07:46 47.42231 -121.76060 17800 ft 392 kts 75°
2026-05-08 07:47 47.42791 -121.72083 18571 ft 398 kts 81°
2026-05-08 07:47 47.43012 -121.68016 19298 ft 403 kts 89°
2026-05-08 07:47 47.42961 -121.63849 20012 ft 408 kts 92°
2026-05-08 07:47 47.42871 -121.59619 20689 ft 414 kts 92°
2026-05-08 07:48 47.42783 -121.55346 21338 ft 419 kts 92°
2026-05-08 07:48 47.42654 -121.51016 21946 ft 424 kts 97°
2026-05-08 07:48 47.42057 -121.46725 22547 ft 427 kts 105°
2026-05-08 07:48 47.41276 -121.42460 23123 ft 432 kts 106°
2026-05-08 07:49 47.40482 -121.38218 23672 ft 436 kts 106°
2026-05-08 07:49 47.39672 -121.33858 24209 ft 440 kts 106°
2026-05-08 07:49 47.38861 -121.29462 24721 ft 445 kts 105°
2026-05-08 07:49 47.38050 -121.25032 25204 ft 449 kts 105°
2026-05-08 07:50 47.37233 -121.20546 25669 ft 453 kts 105°
2026-05-08 07:50 47.36423 -121.16085 26102 ft 457 kts 105°
2026-05-08 07:50 47.35596 -121.11521 26525 ft 462 kts 105°
2026-05-08 07:50 47.34760 -121.06913 26935 ft 465 kts 105°
2026-05-08 07:51 47.33927 -121.02313 27327 ft 469 kts 105°
2026-05-08 07:51 47.33079 -120.97636 27708 ft 473 kts 105°
2026-05-08 07:51 47.32227 -120.92937 28075 ft 476 kts 105°
2026-05-08 07:51 47.31362 -120.88176 28430 ft 480 kts 105°
2026-05-08 07:52 47.30506 -120.83460 28767 ft 483 kts 105°
2026-05-08 07:52 47.29632 -120.78660 29095 ft 486 kts 105°
2026-05-08 07:52 47.28754 -120.73839 29411 ft 489 kts 104°
2026-05-08 07:52 47.27869 -120.68987 29714 ft 492 kts 104°
2026-05-08 07:53 47.26976 -120.64100 30010 ft 494 kts 104°
2026-05-08 07:53 47.26078 -120.59192 30303 ft 497 kts 104°
2026-05-08 07:53 47.25480 -120.55933 30506 ft 498 kts 104°
2026-05-08 07:53 47.24356 -120.49379 30926 ft 499 kts 102°
2026-05-08 07:54 47.23648 -120.44354 31248 ft 500 kts 100°
2026-05-08 07:54 47.23207 -120.41008 31467 ft 500 kts 100°
2026-05-08 07:54 47.22554 -120.35974 31801 ft 501 kts 99°
2026-05-08 07:54 47.21691 -120.29293 32245 ft 501 kts 99°
2026-05-08 07:55 47.21040 -120.24256 32576 ft 501 kts 99°
2026-05-08 07:55 47.20608 -120.20920 32791 ft 501 kts 99°
2026-05-08 07:55 47.19950 -120.15858 33116 ft 500 kts 99°
2026-05-08 07:55 47.19292 -120.10825 33439 ft 500 kts 99°
2026-05-08 07:56 47.18633 -120.05805 33748 ft 500 kts 99°
2026-05-08 07:56 47.17978 -120.00849 34048 ft 500 kts 99°
2026-05-08 07:56 47.17309 -119.95825 34337 ft 500 kts 99°
2026-05-08 07:56 47.16633 -119.90776 34614 ft 500 kts 99°
2026-05-08 07:57 47.15962 -119.85761 34875 ft 501 kts 99°
2026-05-08 07:57 47.14621 -119.75796 34962 ft 499 kts 99°
2026-05-08 07:58 47.13272 -119.65848 34965 ft 497 kts 99°
2026-05-08 07:58 47.11907 -119.55870 34964 ft 497 kts 99°
2026-05-08 07:59 47.10534 -119.45904 34961 ft 497 kts 99°
2026-05-08 07:59 47.09161 -119.36003 34960 ft 498 kts 99°
2026-05-08 08:00 47.07768 -119.26034 34960 ft 498 kts 99°
2026-05-08 08:00 47.06377 -119.16141 34960 ft 497 kts 99°
2026-05-08 08:01 47.04965 -119.06169 34962 ft 498 kts 99°
2026-05-08 08:01 47.03554 -118.96272 34964 ft 498 kts 99°
2026-05-08 08:02 47.02126 -118.86318 34967 ft 499 kts 99°
2026-05-08 08:02 47.00698 -118.76428 34970 ft 498 kts 99°
2026-05-08 08:03 46.99249 -118.66466 34973 ft 499 kts 99°
2026-05-08 08:03 46.98039 -118.58186 34976 ft 499 kts 99°
2026-05-08 08:04 46.96333 -118.46605 34979 ft 499 kts 99°
2026-05-08 08:04 46.94867 -118.36714 34988 ft 499 kts 99°
2026-05-08 08:05 46.93382 -118.26752 34992 ft 499 kts 99°
2026-05-08 08:05 46.91899 -118.16891 35011 ft 499 kts 99°
2026-05-08 08:06 46.90402 -118.06976 35015 ft 499 kts 99°
2026-05-08 08:06 46.88891 -117.97048 35019 ft 500 kts 99°
2026-05-08 08:07 46.87368 -117.87114 35022 ft 500 kts 99°
2026-05-08 08:07 46.85853 -117.77240 35026 ft 500 kts 99°
2026-05-08 08:08 46.84314 -117.67319 35030 ft 501 kts 99°
2026-05-08 08:08 46.82775 -117.57447 35036 ft 500 kts 99°
2026-05-08 08:09 46.81221 -117.47535 35040 ft 500 kts 99°
2026-05-08 08:09 46.79656 -117.37616 35044 ft 500 kts 99°
2026-05-08 08:10 46.78094 -117.27788 35046 ft 500 kts 99°
2026-05-08 08:10 46.76514 -117.17885 35048 ft 500 kts 99°
2026-05-08 08:11 46.74908 -117.08057 35048 ft 501 kts 101°
2026-05-08 08:11 46.72660 -116.98371 35048 ft 504 kts 106°
2026-05-08 08:12 46.70281 -116.88815 35045 ft 503 kts 106°
2026-05-08 08:12 46.67898 -116.79208 35043 ft 504 kts 106°
2026-05-08 08:13 46.65519 -116.69590 35043 ft 504 kts 106°
2026-05-08 08:13 46.63152 -116.59988 35042 ft 504 kts 106°
2026-05-08 08:14 46.60799 -116.50447 35044 ft 503 kts 106°
2026-05-08 08:14 46.58433 -116.40852 35046 ft 503 kts 106°
2026-05-08 08:15 46.56077 -116.31314 35048 ft 503 kts 106°
2026-05-08 08:15 46.53709 -116.21760 35051 ft 502 kts 105°
2026-05-08 08:16 46.51089 -116.12325 35054 ft 506 kts 114°
2026-05-08 08:16 46.47886 -116.03295 35065 ft 506 kts 113°
2026-05-08 08:17 46.44812 -115.94072 35065 ft 506 kts 112°
2026-05-08 08:17 46.41781 -115.84909 35065 ft 506 kts 112°
2026-05-08 08:18 46.38726 -115.75692 35063 ft 506 kts 112°
2026-05-08 08:18 46.35680 -115.66546 35061 ft 507 kts 112°
2026-05-08 08:19 46.32603 -115.57352 35060 ft 506 kts 112°
2026-05-08 08:19 46.29537 -115.48220 35060 ft 507 kts 112°
2026-05-08 08:20 46.26437 -115.39018 35060 ft 507 kts 112°
2026-05-08 08:20 46.23349 -115.29889 35060 ft 508 kts 112°
2026-05-08 08:21 46.20249 -115.20763 35060 ft 508 kts 112°
2026-05-08 08:21 46.17121 -115.11583 35061 ft 509 kts 112°
2026-05-08 08:22 46.13998 -115.02448 35061 ft 510 kts 112°
2026-05-08 08:22 46.10855 -114.93293 35061 ft 510 kts 112°
2026-05-08 08:23 46.07692 -114.84103 35061 ft 510 kts 112°
2026-05-08 08:23 46.04543 -114.74991 35061 ft 512 kts 112°
2026-05-08 08:24 46.01362 -114.65823 35062 ft 511 kts 112°
2026-05-08 08:24 45.98179 -114.56669 35062 ft 509 kts 112°
2026-05-08 08:25 45.95009 -114.47590 35066 ft 510 kts 112°
2026-05-08 08:25 45.91802 -114.38445 35072 ft 511 kts 112°
2026-05-08 08:26 45.88618 -114.29387 35074 ft 510 kts 112°
2026-05-08 08:26 45.85406 -114.20283 35076 ft 511 kts 112°
2026-05-08 08:27 45.82182 -114.11177 35072 ft 511 kts 112°
2026-05-08 08:27 45.78965 -114.02123 35083 ft 511 kts 112°
2026-05-08 08:28 45.75731 -113.93048 35086 ft 511 kts 112°
2026-05-08 08:28 45.72501 -113.84018 35088 ft 511 kts 112°
2026-05-08 08:29 45.69240 -113.74933 35089 ft 511 kts 112°
2026-05-08 08:29 45.65988 -113.65903 35090 ft 512 kts 112°
2026-05-08 08:30 45.62711 -113.56835 35091 ft 512 kts 112°
2026-05-08 08:30 45.57797 -113.43293 35092 ft 513 kts 113°
2026-05-08 08:31 45.54515 -113.34286 35093 ft 513 kts 113°
2026-05-08 08:31 45.51209 -113.25242 35093 ft 513 kts 113°
2026-05-08 08:32 45.47893 -113.16203 35094 ft 513 kts 113°
2026-05-08 08:32 45.44593 -113.07242 35094 ft 513 kts 113°
2026-05-08 08:33 45.41266 -112.98229 35093 ft 514 kts 113°
2026-05-08 08:33 45.37916 -112.89187 35092 ft 514 kts 113°
2026-05-08 08:34 45.34586 -112.80228 35090 ft 515 kts 113°
2026-05-08 08:34 45.31222 -112.71210 35090 ft 516 kts 113°
2026-05-08 08:35 45.27847 -112.62189 35089 ft 516 kts 113°
2026-05-08 08:35 45.24478 -112.53266 35089 ft 517 kts 114°
2026-05-08 08:36 45.20881 -112.44393 35089 ft 517 kts 115°
2026-05-08 08:36 45.17365 -112.35491 35089 ft 516 kts 114°
2026-05-08 08:37 45.13893 -112.26635 35091 ft 517 kts 114°
2026-05-08 08:37 45.10390 -112.17721 35093 ft 517 kts 114°
2026-05-08 08:38 45.06884 -112.08828 35096 ft 517 kts 114°
2026-05-08 08:38 45.03390 -111.99999 35099 ft 516 kts 115°
2026-05-08 08:39 44.99877 -111.91149 35103 ft 516 kts 115°
2026-05-08 08:39 44.96375 -111.82361 35109 ft 515 kts 115°
2026-05-08 08:40 44.92851 -111.73544 35114 ft 515 kts 115°
2026-05-08 08:40 44.89321 -111.64743 35121 ft 514 kts 115°
2026-05-08 08:41 44.85812 -111.56021 35128 ft 514 kts 115°
2026-05-08 08:41 44.82270 -111.47245 35136 ft 513 kts 115°
2026-05-08 08:42 44.78727 -111.38495 35144 ft 513 kts 115°
2026-05-08 08:42 44.75199 -111.29809 35150 ft 513 kts 115°
2026-05-08 08:43 44.71648 -111.21094 35155 ft 512 kts 115°
2026-05-08 08:43 44.68113 -111.12446 35158 ft 512 kts 115°
2026-05-08 08:44 44.64554 -111.03764 35159 ft 512 kts 116°
2026-05-08 08:44 44.61012 -110.95153 35160 ft 511 kts 116°
2026-05-08 08:45 44.57445 -110.86506 35164 ft 510 kts 116°
2026-05-08 08:45 44.53883 -110.77893 35169 ft 510 kts 116°
2026-05-08 08:46 44.50326 -110.69329 35174 ft 509 kts 116°
2026-05-08 08:46 44.46756 -110.60756 35180 ft 508 kts 116°
2026-05-08 08:47 44.43209 -110.52262 35184 ft 507 kts 116°
2026-05-08 08:47 44.40240 -110.45173 35185 ft 506 kts 117°
2026-05-08 08:48 44.36666 -110.36661 35184 ft 505 kts 117°
2026-05-08 08:48 44.33126 -110.28255 35181 ft 504 kts 117°
2026-05-08 08:49 44.29556 -110.19803 35176 ft 504 kts 117°
2026-05-08 08:49 44.25999 -110.11410 35171 ft 504 kts 117°
2026-05-08 08:50 44.22427 -110.03006 35165 ft 504 kts 117°
2026-05-08 08:50 44.18840 -109.94589 35160 ft 503 kts 117°
2026-05-08 08:51 44.15284 -109.86271 35154 ft 503 kts 117°
2026-05-08 08:51 44.11686 -109.77878 35150 ft 503 kts 117°
2026-05-08 08:52 44.08115 -109.69574 35146 ft 503 kts 117°
2026-05-08 08:52 44.04507 -109.61207 35142 ft 503 kts 118°
2026-05-08 08:53 44.00921 -109.52915 35141 ft 503 kts 118°
2026-05-08 08:53 43.97299 -109.44561 35143 ft 502 kts 118°
2026-05-08 08:54 43.93698 -109.36283 35141 ft 503 kts 118°
2026-05-08 08:54 43.90094 -109.28025 35140 ft 502 kts 118°
2026-05-08 08:55 43.86464 -109.19725 35140 ft 502 kts 118°
2026-05-08 08:55 43.82826 -109.11435 35139 ft 502 kts 118°
2026-05-08 08:56 43.79215 -109.03227 35139 ft 501 kts 119°
2026-05-08 08:56 43.75578 -108.94987 35124 ft 501 kts 119°
2026-05-08 08:57 43.71949 -108.86787 35119 ft 501 kts 119°
2026-05-08 08:57 43.68325 -108.78621 35119 ft 500 kts 119°
2026-05-08 08:58 43.64679 -108.70426 35119 ft 499 kts 119°
2026-05-08 08:58 43.61024 -108.62241 35120 ft 499 kts 119°
2026-05-08 08:59 43.57404 -108.54152 35121 ft 498 kts 120°
2026-05-08 08:59 43.53754 -108.46017 35121 ft 498 kts 120°
2026-05-08 09:00 43.50098 -108.37895 35118 ft 498 kts 120°
2026-05-08 09:00 43.46453 -108.29838 35118 ft 498 kts 121°
2026-05-08 09:01 43.42285 -108.22188 35120 ft 499 kts 126°
2026-05-08 09:01 43.38125 -108.14536 35121 ft 498 kts 125°
2026-05-08 09:02 43.34029 -108.06870 35121 ft 498 kts 125°
2026-05-08 09:02 43.29919 -107.99179 35118 ft 498 kts 125°
2026-05-08 09:03 43.25850 -107.91571 35118 ft 496 kts 125°
2026-05-08 09:03 43.21730 -107.83908 35116 ft 498 kts 126°
2026-05-08 09:04 43.17636 -107.76311 35114 ft 497 kts 126°
2026-05-08 09:04 43.13542 -107.68735 35099 ft 497 kts 126°
2026-05-08 09:05 43.09411 -107.61111 35097 ft 497 kts 126°
2026-05-08 09:05 43.05278 -107.53501 35100 ft 497 kts 126°
2026-05-08 09:06 43.01167 -107.45955 35104 ft 497 kts 126°
2026-05-08 09:06 42.97029 -107.38375 35102 ft 497 kts 126°
2026-05-08 09:07 42.92881 -107.30798 35100 ft 497 kts 126°
2026-05-08 09:07 42.88758 -107.23290 35103 ft 497 kts 126°
2026-05-08 09:08 42.84601 -107.15735 35112 ft 497 kts 126°
2026-05-08 09:08 42.80463 -107.08235 35112 ft 497 kts 127°
2026-05-08 09:09 42.76312 -107.00734 35110 ft 497 kts 127°
2026-05-08 09:09 42.72135 -106.93201 35108 ft 497 kts 127°
2026-05-08 09:10 42.67963 -106.85695 35107 ft 497 kts 127°
2026-05-08 09:10 42.63806 -106.78239 35104 ft 497 kts 127°
2026-05-08 09:11 42.59621 -106.70751 35103 ft 497 kts 127°
2026-05-08 09:11 42.55438 -106.63283 35101 ft 497 kts 127°
2026-05-08 09:12 42.51269 -106.55861 35103 ft 497 kts 127°
2026-05-08 09:12 42.47070 -106.48404 35105 ft 497 kts 127°
2026-05-08 09:13 42.42864 -106.40954 35102 ft 497 kts 127°
2026-05-08 09:13 42.38686 -106.33571 35101 ft 497 kts 127°
2026-05-08 09:14 42.34478 -106.26150 35098 ft 497 kts 128°
2026-05-08 09:14 42.30251 -106.18719 35098 ft 497 kts 128°
2026-05-08 09:15 42.26053 -106.11357 35099 ft 497 kts 128°
2026-05-08 09:15 42.21817 -106.03946 35100 ft 498 kts 128°
2026-05-08 09:16 42.17602 -105.96588 35102 ft 498 kts 128°
2026-05-08 09:16 42.13375 -105.89229 35104 ft 498 kts 128°
2026-05-08 09:17 42.09127 -105.81852 35106 ft 498 kts 128°
2026-05-08 09:17 42.04879 -105.74491 35106 ft 498 kts 128°
2026-05-08 09:18 42.00621 -105.67132 35097 ft 497 kts 128°
2026-05-08 09:18 41.96390 -105.59839 35087 ft 498 kts 128°
2026-05-08 09:19 41.92073 -105.52473 35087 ft 508 kts 125°
2026-05-08 09:19 41.87664 -105.44873 35089 ft 519 kts 123°